This is the latest recevied weather packets stored in our database for station/object AC4AG. If no packets are shown the sender has not sent any weather packets the latest 10 day(s).
| Time | Temp. | Humidity | Pressure | Rain* | Wind** | Luminosity | Snow |
|---|---|---|---|---|---|---|---|
| 1777334766 | 23.33° C | 57% | 1011.7 hPa | 0 mm | - | 9 W/m² | - |
| 1777334463 | 23.33° C | 57% | 1011.8 hPa | 0 mm | - | 12 W/m² | - |
| 1777334159 | 23.33° C | 57% | 1011.9 hPa | 0 mm | - | 16 W/m² | - |
| 1777333859 | 23.33° C | 57% | 1011.7 hPa | 0 mm | - | 21 W/m² | - |
| 1777333556 | 23.33° C | 56% | 1011.7 hPa | 0 mm | - | 28 W/m² | - |
| 1777333252 | 23.33° C | 56% | 1011.6 hPa | 0 mm | - | 39 W/m² | - |
| 1777332951 | 23.89° C | 56% | 1011.5 hPa | 0 mm | - | 41 W/m² | - |
| 1777332649 | 23.89° C | 56% | 1011.7 hPa | 0 mm | - | 44 W/m² | - |
| 1777332345 | 23.89° C | 56% | 1011.7 hPa | 0 mm | - | 51 W/m² | - |
| 1777332042 | 23.89° C | 56% | 1011.5 hPa | 0 mm | - | 64 W/m² | - |
| 1777331740 | 24.44° C | 56% | 1011.4 hPa | 0 mm | - | 69 W/m² | - |
| 1777331436 | 24.44° C | 55% | 1011.6 hPa | 0 mm | - | 86 W/m² | - |
| 1777331133 | 24.44° C | 55% | 1011.7 hPa | 0 mm | - | 114 W/m² | - |
| 1777330831 | 25° C | 54% | 1011.6 hPa | 0 mm | - | 124 W/m² | - |
| 1777330527 | 25° C | 54% | 1011.6 hPa | 0 mm | - | 134 W/m² | - |
| 1777330225 | 25° C | 55% | 1011.8 hPa | 0 mm | - | 152 W/m² | - |
| 1777329923 | 25° C | 54% | 1011.8 hPa | 0 mm | - | 153 W/m² | - |
| 1777329621 | 25° C | 54% | 1011.7 hPa | 0 mm | - | 193 W/m² | - |
| 1777329320 | 25° C | 54% | 1011.7 hPa | 0 mm | - | 243 W/m² | - |
| 1777329016 | 25.56° C | 54% | 1011.5 hPa | 0 mm | - | 241 W/m² | - |
| 1777328715 | 25° C | 53% | 1011.5 hPa | 0 mm | - | 256 W/m² | - |
| 1777328411 | 25° C | 53% | 1011.9 hPa | 0 mm | - | 302 W/m² | - |
| 1777328110 | 25.56° C | 53% | 1011.9 hPa | 0 mm | - | 247 W/m² | - |
| 1777327808 | 25.56° C | 53% | 1012 hPa | 0 mm | - | 285 W/m² | - |
| 1777327505 | 25.56° C | 52% | 1011.9 hPa | 0 mm | - | 275 W/m² | - |
* Rain latest hour (hover to see other rain measurements)
** Current wind speed in m/s (hover to see current wind gust speed)